DW4881 Weather Reports


time (UTC)temp
F
wind
direction
speed
knots
gust
knots
rain 1hr
in
rain 24hr
in
rain mn
in
humidity
%
barometer
mb
20260503213014 91 325 1.7 3.5 0.00 0.00 0.00 29 1006.5
20260503212514 91 348 0.0 3.5 0.00 0.00 0.00 28 1006.5
20260503212013 91 9 1.7 3.5 0.00 0.00 0.00 28 1006.6
20260503211512 90 303 0.9 3.5 0.00 0.00 0.00 29 1006.6
20260503211010 90 303 0.0 3.5 0.00 0.00 0.00 31 1006.6
20260503210514 90 303 1.7 3.5 0.00 0.00 0.00 30 1006.8
20260503210008 89 303 0.0 5.2 0.00 0.00 0.00 29 1006.7
20260503205507 89 303 1.7 6.1 0.00 0.00 0.00 31 1006.9
20260503205006 89 336 0.9 3.5 0.00 0.00 0.00 30 1006.9
20260503204504 88 336 0.9 3.5 0.00 0.00 0.00 32 1006.9
20260503204002 88 336 1.7 5.2 0.00 0.00 0.00 32 1007.0
20260503203503 88 355 1.7 6.1 0.00 0.00 0.00 33 1007.1
20260503203001 88 292 0.9 6.1 0.00 0.00 0.00 35 1007.1
20260503202600 88 297 0.9 6.1 0.00 0.00 0.00 35 1007.2
20260503202059 88 297 3.5 6.1 0.00 0.00 0.00 33 1007.2
20260503201604 87 346 0.9 4.3 0.00 0.00 0.00 33 1007.3
20260503201057 87 313 1.7 5.2 0.00 0.00 0.00 35 1007.3
20260503200557 87 21 2.6 5.2 0.00 0.00 0.00 32 1007.4
20260503200100 87 306 2.6 6.1 0.00 0.00 0.00 34 1007.5
20260503195555 87 355 1.7 4.3 0.00 0.00 0.00 35 1007.5
20260503195057 87 330 1.7 4.3 0.00 0.00 0.00 35 1007.6
20260503194555 86 330 1.7 5.2 0.00 0.00 0.00 35 1007.6
20260503194053 86 305 2.6 5.2 0.00 0.00 0.00 34 1007.7
20260503193554 86 12 1.7 5.2 0.00 0.00 0.00 33 1007.7
20260503193056 86 310 1.7 5.2 0.00 0.00 0.00 37 1007.7
20260503192551 86 311 0.9 5.2 0.00 0.00 0.00 40 1007.8
20260503192050 85 311 1.7 5.2 0.00 0.00 0.00 40 1007.9
20260503191554 85 311 1.7 5.2 0.00 0.00 0.00 39 1007.9
20260503191049 84 308 2.6 5.2 0.00 0.00 0.00 40 1008.0
20260503190548 83 302 1.7 4.3 0.00 0.00 0.00 42 1008.1
20260503190045 83 302 0.9 5.2 0.00 0.00 0.00 41 1008.2
20260503185549 84 300 1.7 5.2 0.00 0.00 0.00 39 1008.3
20260503185045 84 355 0.9 4.3 0.00 0.00 0.00 42 1008.3
20260503184555 84 296 1.7 4.3 0.00 0.00 0.00 42 1008.4
20260503184045 84 346 0.9 3.5 0.00 0.00 0.00 41 1008.5
20260503183542 83 349 0.0 3.5 0.00 0.00 0.00 43 1008.5
20260503183058 83 349 0.9 3.5 0.00 0.00 0.00 43 1008.6
20260503182540 82 319 0.9 2.6 0.00 0.00 0.00 41 1008.6
20260503182040 83 319 0.9 2.6 0.00 0.00 0.00 42 1008.6
20260503181540 83 319 0.9 2.6 0.00 0.00 0.00 44 1008.7
20260503181039 84 319 0.9 4.3 0.00 0.00 0.00 43 1008.8
20260503180540 84 319 1.7 4.3 0.00 0.00 0.00 42 1008.8
20260503180042 83 319 0.9 3.5 0.00 0.00 0.00 44 1008.8
20260503175537 82 319 0.0 2.6 0.00 0.00 0.00 43 1008.9
20260503175039 83 319 0.9 3.5 0.00 0.00 0.00 43 1008.9
20260503174536 83 319 0.9 4.3 0.00 0.00 0.00 44 1008.9
20260503174033 82 319 0.9 4.3 0.00 0.00 0.00 45 1009.0
20260503173533 81 323 0.0 2.6 0.00 0.00 0.00 44 1009.1
20260503173059 81 322 0.9 3.5 0.00 0.00 0.00 44 1009.0
20260503172535 81 322 0.0 3.5 0.00 0.00 0.00 45 1009.2
20260503172031 81 300 0.0 3.5 0.00 0.00 0.00 47 1009.1
20260503171531 79 300 1.7 3.5 0.00 0.00 0.00 47 1009.1
20260503171030 80 300 0.9 2.6 0.00 0.00 0.00 44 1009.1
20260503170529 80 300 0.0 4.3 0.00 0.00 0.00 47 1009.1
20260503150603 58 133 0.0 1.7 0.00 0.00 0.00 87 1009.6
20260503150105 57 133 0.0 1.7 0.00 0.00 0.00 87 1009.6
20260503131053 52 133 0.0 0.9 0.00 0.00 0.00 91 1009.2
20260503130553 52 133 0.0 1.7 0.00 0.00 0.00 91 1009.2
20260503110541 54 133 0.0 0.0 0.00 0.00 0.00 89 1009.5
20260503081521 57 133 0.0 0.0 0.00 0.00 0.00 82 1010.0
20260503081021 57 133 0.0 0.0 0.00 0.00 0.00 84 1010.0
20260503080521 58 133 0.0 0.0 0.00 0.00 0.00 84 1010.0
20260503072516 58 133 0.0 1.7 0.00 0.00 0.00 85 1010.1
20260503072015 58 133 0.9 1.7 0.00 0.00 0.00 85 1010.1
20260503071515 58 133 0.0 0.0 0.00 0.00 0.00 84 1009.9
20260503071014 59 133 0.0 0.0 0.00 0.00 0.00 84 1010.0
20260503070512 59 133 0.0 0.0 0.00 0.00 0.00 84 1010.0
20260503055008 61 133 0.0 0.0 0.00 0.00 0.00 79 1009.6
20260503054509 61 133 0.0 1.7 0.00 0.00 0.00 80 1009.6
20260503054008 61 133 0.0 2.6 0.00 0.00 0.00 78 1009.6
20260503053508 61 133 0.9 3.5 0.00 0.00 0.00 81 1009.6
20260503053008 61 133 1.7 3.5 0.00 0.00 0.00 81 1009.6
20260503052511 61 133 0.9 1.7 0.00 0.00 0.00 80 1009.8
20260503052008 61 133 0.9 1.7 0.00 0.00 0.00 79 1009.9
20260503051508 62 133 0.0 0.0 0.00 0.00 0.00 78 1010.2
20260503051008 62 133 0.0 0.0 0.00 0.00 0.00 75 1010.3
20260503050508 62 133 0.0 0.0 0.00 0.00 0.00 79 1010.4
20260503050007 62 133 0.0 0.0 0.00 0.00 0.00 78 1010.3
20260503045507 62 133 0.0 2.6 0.00 0.00 0.00 78 1010.2
20260503045008 62 133 0.0 2.6 0.00 0.00 0.00 78 1010.1
20260503044507 62 133 1.7 2.6 0.00 0.00 0.00 78 1010.2
20260503044005 62 133 0.0 2.6 0.00 0.00 0.00 78 1010.0
20260503043505 63 133 0.9 2.6 0.00 0.00 0.00 77 1010.0
20260503043008 63 133 1.7 2.6 0.00 0.00 0.00 77 1010.0
20260503042505 63 133 0.9 1.7 0.00 0.00 0.00 76 1010.1
20260503042006 63 133 0.0 1.7 0.00 0.00 0.00 75 1010.2
20260503041510 63 133 0.0 2.6 0.00 0.00 0.00 76 1010.2
20260503041010 64 133 0.9 2.6 0.00 0.00 0.00 76 1010.2
20260503040507 64 133 0.0 0.9 0.00 0.00 0.00 75 1010.3
20260503040005 64 133 0.0 2.6 0.00 0.00 0.00 74 1010.2
20260503035508 64 133 0.9 2.6 0.00 0.00 0.00 75 1010.0
20260503035005 64 133 0.0 1.7 0.00 0.00 0.00 74 1010.1
20260503034513 64 133 0.0 2.6 0.00 0.00 0.00 74 1010.2
20260503034007 65 133 1.7 2.6 0.00 0.00 0.00 74 1009.9
20260503033506 65 133 0.0 1.7 0.00 0.00 0.00 74 1009.9
20260503033004 65 133 0.9 1.7 0.00 0.00 0.00 72 1009.9
20260503032503 65 133 0.0 1.7 0.00 0.00 0.00 72 1009.9
20260503032003 66 133 0.0 1.7 0.00 0.00 0.00 72 1009.9
20260503031504 67 133 0.0 0.0 0.00 0.00 0.00 70 1009.8
20260503031004 67 133 0.0 0.0 0.00 0.00 0.00 70 1009.8
20260503030504 67 133 0.0 1.7 0.00 0.00 0.00 69 1009.9
20260503030003 67 133 0.0 2.6 0.00 0.00 0.00 70 1009.9
20260503025503 67 133 0.0 2.6 0.00 0.00 0.00 70 1009.9
20260503025003 67 133 0.9 6.1 0.00 0.00 0.00 70 1009.8
20260503024506 67 132 0.0 6.1 0.00 0.00 0.00 70 1009.9
20260503024002 67 140 0.9 7.8 0.00 0.00 0.00 70 1009.9
20260503023502 67 168 2.6 7.8 0.00 0.00 0.00 69 1009.9
20260503023002 68 135 2.6 7.8 0.00 0.00 0.00 68 1009.8
20260503022501 69 74 2.6 13.0 0.00 0.00 0.00 66 1009.8
20260503022003 70 167 2.6 13.0 0.00 0.00 0.00 65 1009.8
20260503021501 71 158 3.5 10.4 0.00 0.00 0.00 64 1009.7
20260503021001 72 167 1.7 7.0 0.00 0.00 0.00 63 1009.6
20260503020501 72 140 0.9 5.2 0.00 0.00 0.00 62 1009.2
20260503020001 72 117 0.0 5.2 0.00 0.00 0.00 62 1009.0
20260503015501 73 117 0.9 5.2 0.00 0.00 0.00 62 1008.9
20260503015100 73 117 1.7 5.2 0.00 0.00 0.00 61 1008.9
20260503014624 73 256 0.0 2.6 0.00 0.00 0.00 61 1008.8
20260503014100 73 256 0.9 1.7 0.00 0.00 0.00 61 1008.8
20260503013559 74 256 0.0 1.7 0.00 0.00 0.00 61 1008.8
20260503013100 74 256 0.0 0.9 0.00 0.00 0.00 61 1008.7
20260503012600 74 256 0.0 0.9 0.00 0.00 0.00 62 1008.7
20260503012059 73 256 0.0 0.0 0.00 0.00 0.00 62 1008.7
20260503011559 73 256 0.0 0.0 0.00 0.00 0.00 62 1008.7
20260503011058 73 256 0.0 0.9 0.00 0.00 0.00 61 1008.8
20260503010558 74 256 0.0 1.7 0.00 0.00 0.00 60 1008.7
20260503010058 74 256 0.0 2.6 0.00 0.00 0.00 60 1008.8
20260503005558 74 256 0.9 2.6 0.00 0.00 0.00 60 1008.8
20260503005102 74 256 0.0 2.6 0.00 0.00 0.00 59 1008.8
20260503004558 74 256 0.9 2.6 0.00 0.00 0.00 59 1008.8
20260503004100 75 256 1.7 2.6 0.00 0.00 0.00 59 1008.9
20260503003557 74 256 0.0 2.6 0.00 0.00 0.00 61 1008.8
20260503003058 74 256 0.9 2.6 0.00 0.00 0.00 59 1008.8
20260503002556 75 256 0.0 2.6 0.00 0.00 0.00 59 1008.9
20260503002056 75 256 0.9 2.6 0.00 0.00 0.00 57 1008.9
20260503001556 75 255 0.0 2.6 0.00 0.00 0.00 58 1008.9
20260503001056 76 238 0.0 2.6 0.00 0.00 0.00 58 1009.0
20260503000555 75 238 0.9 1.7 0.00 0.00 0.00 59 1008.9
20260503000055 74 210 0.0 3.5 0.00 0.00 0.00 60 1008.9
20260502235554 74 210 0.9 4.3 0.00 0.00 0.00 59 1008.9
20260502235053 74 210 0.9 4.3 0.00 0.00 0.00 60 1009.0
20260502234554 74 220 0.9 3.5 0.00 0.00 0.00 59 1009.1
20260502234052 74 222 0.0 3.5 0.00 0.00 0.00 60 1009.1
20260502233552 75 222 0.9 3.5 0.00 0.00 0.00 57 1009.1
20260502233050 75 222 0.9 3.5 0.00 0.00 0.00 60 1009.3
20260502232550 75 223 0.9 5.2 0.00 0.00 0.00 57 1009.3
20260502232050 75 305 0.0 5.2 0.00 0.00 0.00 57 1009.2
20260502231601 75 306 0.9 5.2 0.00 0.00 0.00 58 1009.3
20260502231049 75 310 2.6 5.2 0.00 0.00 0.00 56 1009.4
20260502230548 75 308 0.9 3.5 0.00 0.00 0.00 57 1009.4
20260502230047 74 308 0.9 5.2 0.00 0.00 0.00 59 1009.6
20260502225545 74 308 1.7 5.2 0.00 0.00 0.00 58 1009.7
20260502225046 74 293 0.0 1.7 0.00 0.00 0.00 60 1009.7
20260502224545 74 293 0.0 3.5 0.00 0.00 0.00 60 1009.8
20260502224043 74 293 0.0 3.5 0.00 0.00 0.00 61 1009.8
20260502223543 73 293 0.9 4.3 0.00 0.00 0.00 61 1010.0
20260502223041 73 296 0.0 5.2 0.00 0.00 0.00 62 1010.1
20260502222541 73 306 1.7 4.3 0.00 0.00 0.00 61 1010.1
20260502222044 73 306 0.9 3.5 0.00 0.00 0.00 61 1010.1
20260502221539 73 306 0.0 3.5 0.00 0.00 0.00 61 1010.2
20260502221041 72 306 0.0 4.3 0.00 0.00 0.00 61 1010.4
20260502220538 72 296 0.9 4.3 0.00 0.00 0.00 61 1010.5
20260502220041 72 246 0.0 4.3 0.00 0.00 0.00 65 1010.6
20260502215535 71 211 0.9 4.3 0.00 0.00 0.00 66 1010.7
20260502215033 70 313 0.0 3.5 0.00 0.00 0.00 65 1010.7
20260502214537 69 313 0.9 3.5 0.00 0.00 0.00 65 1010.8
20260502214032 68 316 0.9 3.5 0.00 0.00 0.00 68 1010.8
20260502213531 68 301 0.9 3.5 0.00 0.00 0.00 67 1010.9